TimeEDT,TemperatureF,Dew PointF,Humidity,Sea Level PressureIn,VisibilityMPH,Wind Direction,Wind SpeedMPH,Gust SpeedMPH,PrecipitationIn,Events,Conditions,WindDirDegrees,DateUTC
12:54 AM,64.9,63.0,93,29.93,10.0,Calm,Calm,-,N/A,,Clear,0,2012-08-15 04:54:00
1:15 AM,66.2,62.6,88,30.00,9.0,Calm,Calm,-,N/A,,Partly Cloudy,0,2012-08-15 05:15:00
1:54 AM,64.0,63.0,96,29.92,9.0,Calm,Calm,-,N/A,,Clear,0,2012-08-15 05:54:00
2:06 AM,64.4,62.6,94,30.00,2.5,WSW,4.6,-,N/A,,Scattered Clouds,240,2012-08-15 06:06:00
2:08 AM,64.4,62.6,94,30.01,1.2,WSW,3.5,-,N/A,,Scattered Clouds,250,2012-08-15 06:08:00
2:11 AM,64.4,62.6,94,30.00,0.8,Calm,Calm,-,N/A,,Mist,0,2012-08-15 06:11:00
2:20 AM,64.4,62.6,94,30.00,1.5,Calm,Calm,-,N/A,,Mostly Cloudy,0,2012-08-15 06:20:00
2:24 AM,64.4,64.4,100,30.00,3.0,Calm,Calm,-,N/A,,Overcast,0,2012-08-15 06:24:00
2:54 AM,64.9,63.0,93,29.92,7.0,West,3.5,-,N/A,,Overcast,280,2012-08-15 06:54:00
3:09 AM,64.4,64.4,100,30.00,1.8,SSW,3.5,-,N/A,,Overcast,200,2012-08-15 07:09:00
3:13 AM,64.4,64.4,100,30.00,0.8,Calm,Calm,-,N/A,,Overcast,0,2012-08-15 07:13:00
3:39 AM,64.4,64.4,100,30.00,0.5,NNW,3.5,-,N/A,Fog,Fog,330,2012-08-15 07:39:00
3:49 AM,64.4,64.4,100,30.00,1.0,NNW,3.5,-,N/A,,Mist,340,2012-08-15 07:49:00
3:50 AM,64.9,64.0,97,29.92,1.0,NNW,4.6,-,N/A,,Mist,340,2012-08-15 07:50:00
3:54 AM,64.4,64.4,100,30.00,2.0,North,3.5,-,N/A,,Overcast,350,2012-08-15 07:54:00
4:15 AM,64.4,64.4,100,30.00,1.2,Calm,Calm,-,N/A,,Overcast,0,2012-08-15 08:15:00
4:22 AM,64.4,64.4,100,30.00,0.8,Calm,Calm,-,N/A,,Overcast,0,2012-08-15 08:22:00
4:37 AM,64.4,64.4,100,30.00,0.2,Calm,Calm,-,N/A,Fog,Fog,0,2012-08-15 08:37:00
4:44 AM,64.4,64.4,100,30.00,0.5,Calm,Calm,-,N/A,Fog,Fog,0,2012-08-15 08:44:00
4:54 AM,64.9,64.0,97,29.91,0.2,Calm,Calm,-,N/A,Fog,Fog,0,2012-08-15 08:54:00
5:11 AM,64.4,64.4,100,30.00,0.5,NW,3.5,-,N/A,Fog,Fog,320,2012-08-15 09:11:00
5:37 AM,64.4,62.6,94,30.00,1.5,Calm,Calm,-,N/A,,Overcast,0,2012-08-15 09:37:00
5:54 AM,64.0,63.0,96,29.93,4.0,Calm,Calm,-,N/A,,Overcast,0,2012-08-15 09:54:00
6:54 AM,64.0,63.0,96,29.96,1.5,WNW,3.5,-,N/A,,Overcast,300,2012-08-15 10:54:00
6:56 AM,64.4,62.6,94,30.03,0.8,Calm,Calm,-,N/A,,Overcast,0,2012-08-15 10:56:00
7:08 AM,64.4,62.6,94,30.04,0.2,Calm,Calm,-,N/A,Fog,Fog,0,2012-08-15 11:08:00
7:45 AM,64.4,62.6,94,30.03,0.8,Calm,Calm,-,N/A,,Overcast,0,2012-08-15 11:45:00
7:48 AM,64.4,62.6,94,30.03,1.5,Calm,Calm,-,N/A,,Overcast,0,2012-08-15 11:48:00
7:51 AM,64.4,64.4,100,30.03,0.8,Calm,Calm,-,N/A,,Overcast,0,2012-08-15 11:51:00
7:54 AM,64.0,64.0,100,29.96,0.5,Calm,Calm,-,N/A,Fog,Fog,0,2012-08-15 11:54:00
8:06 AM,64.4,62.6,94,30.03,1.5,Calm,Calm,-,N/A,,Overcast,0,2012-08-15 12:06:00
8:33 AM,64.4,62.6,94,30.03,0.8,SSW,3.5,-,N/A,,Overcast,200,2012-08-15 12:33:00
8:48 AM,64.4,62.6,94,30.04,1.5,WSW,4.6,-,N/A,,Overcast,240,2012-08-15 12:48:00
8:50 AM,64.4,62.6,94,30.04,3.0,Variable,4.6,-,N/A,,Overcast,0,2012-08-15 12:50:00
8:54 AM,64.0,63.0,96,29.99,5.0,West,3.5,-,N/A,,Overcast,260,2012-08-15 12:54:00
9:08 AM,64.4,64.4,100,30.05,2.5,NW,3.5,-,N/A,,Overcast,320,2012-08-15 13:08:00
9:19 AM,64.4,62.6,94,30.04,4.0,Calm,Calm,-,N/A,,Mostly Cloudy,0,2012-08-15 13:19:00
9:54 AM,66.0,64.0,93,29.99,5.0,Calm,Calm,-,N/A,,Mostly Cloudy,0,2012-08-15 13:54:00
10:01 AM,66.2,64.4,94,30.04,5.0,Calm,Calm,-,N/A,,Partly Cloudy,0,2012-08-15 14:01:00
10:54 AM,69.1,64.0,84,29.98,6.0,Calm,Calm,-,N/A,,Partly Cloudy,0,2012-08-15 14:54:00
11:54 AM,75.0,64.9,71,29.99,10.0,NNW,4.6,-,N/A,,Partly Cloudy,330,2012-08-15 15:54:00
12:54 PM,77.0,63.0,62,29.97,10.0,Calm,Calm,-,N/A,,Partly Cloudy,0,2012-08-15 16:54:00
1:54 PM,77.0,63.0,62,29.96,10.0,WNW,3.5,-,N/A,,Overcast,300,2012-08-15 17:54:00
2:54 PM,71.1,66.0,84,29.97,4.0,North,10.4,-,0.02,Rain,Rain,350,2012-08-15 18:54:00
3:54 PM,78.1,64.9,64,29.94,10.0,NNW,5.8,-,0.07,,Mostly Cloudy,340,2012-08-15 19:54:00
5:54 PM,75.9,60.1,58,29.96,10.0,NNW,15.0,21.9,N/A,,Clear,340,2012-08-15 21:54:00
6:54 PM,75.9,59.0,56,29.96,10.0,North,12.7,-,N/A,,Clear,350,2012-08-15 22:54:00
7:54 PM,72.0,60.1,66,29.98,10.0,WNW,3.5,-,N/A,,Clear,300,2012-08-15 23:54:00
8:54 PM,69.1,61.0,75,30.00,10.0,Calm,Calm,-,N/A,,Clear,0,2012-08-16 00:54:00
9:54 PM,66.2,60.8,83,30.07,10.0,NNW,4.6,-,N/A,,Clear,330,2012-08-16 01:54:00
10:54 PM,64.0,61.0,90,30.03,10.0,Calm,Calm,-,N/A,,Clear,0,2012-08-16 02:54:00
11:54 PM,64.0,61.0,90,30.03,10.0,North,3.5,-,N/A,,Clear,10,2012-08-16 03:54:00